Weather reports worldwide

Advertisment
Arvika, Sweden (2411): temperature & dewpoint: 06.12.2019 17:00:00 - 12.12.2019 17:00:00 (CET)Arvika, Sweden (2411): wind speed & gusts: 06.12.2019 17:00:00 - 12.12.2019 17:00:00 (CET)Arvika, Sweden (2411): wind direction: 06.12.2019 17:00:00 - 12.12.2019 17:00:00 (CET)Arvika, Sweden (2411): reduced air pressure: 06.12.2019 17:00:00 - 12.12.2019 17:00:00 (CET)Arvika, Sweden (2411): visibility: 06.12.2019 17:00:00 - 12.12.2019 17:00:00 (CET)Arvika, Sweden (2411): precipitation: 06.12.2019 17:00:00 - 12.12.2019 17:00:00 (CET)
Date & Time tt [°C] td [°C] ff [km/h] ff [kn] fx [km/h] fx [kn] dd ppp [hPa] vv [km] rr [mm]
12.12.2019 17:00:00 3,0 2,7 4 2 11 6 S 992,8 - 0,9
12.12.2019 16:00:00 3,0 2,3 4 2 8 4 SE 993,2 - 0,0
12.12.2019 15:00:00 3,1 2,5 4 2 9 5 SSE 993,7 13 0,0
12.12.2019 14:00:00 3,0 2,4 4 2 9 5 SE 994,1 12 0,0
12.12.2019 13:00:00 2,6 2,0 0 0 8 4 N 994,7 11 0,0
12.12.2019 12:00:00 3,1 2,4 3 2 9 5 SSE 995,5 14 0,0
12.12.2019 11:00:00 3,0 2,4 4 2 13 7 SSE 996,2 13 0,0
12.12.2019 10:00:00 3,0 2,3 6 3 14 7 SE 996,7 13 0,0
12.12.2019 09:00:00 3,1 2,5 3 1 10 6 SE 997,1 12 0,0
12.12.2019 08:00:00 3,0 2,1 5 3 15 8 SSE 997,0 12 0,0
12.12.2019 07:00:00 3,7 2,7 8 4 15 8 SSE 997,0 13 0,0
12.12.2019 06:00:00 3,3 2,3 7 4 16 9 SSE 997,2 12 0,0
12.12.2019 05:00:00 3,9 2,7 10 5 20 11 SSE 997,4 13 0,0
12.12.2019 04:00:00 3,7 2,8 8 4 17 9 SE 997,6 - 0,0
12.12.2019 03:00:00 3,9 2,9 7 4 16 9 SE 998,1 - 0,0
12.12.2019 02:00:00 4,2 3,0 10 5 17 9 SE 998,3 - 0,0
12.12.2019 01:00:00 2,4 1,7 0 0 9 5 N 999,0 - 0,0
12.12.2019 00:00:00 3,3 2,6 0 0 10 5 N 999,3 - 0,0
11.12.2019 23:00:00 4,1 2,9 5 3 12 6 SSE 999,1 - 0,0
11.12.2019 22:00:00 4,0 3,0 5 3 15 8 SSE 999,6 - 0,0
11.12.2019 21:00:00 4,0 3,0 6 4 20 11 S 999,4 - 0,0
11.12.2019 20:00:00 4,2 2,7 6 3 15 8 SSE 999,4 - 0,0
11.12.2019 19:00:00 4,5 2,8 6 4 19 10 S 999,2 - 0,0
11.12.2019 18:00:00 4,9 3,4 8 5 17 9 S 999,1 - 0,0
11.12.2019 17:00:00 3,9 2,7 4 2 20 11 SSE 999,2 - 0,3
11.12.2019 16:00:00 5,3 3,1 7 4 14 7 S 998,9 - 0,0
11.12.2019 15:00:00 5,1 3,4 4 2 12 6 S 998,5 12 0,0
11.12.2019 14:00:00 6,2 3,4 5 3 12 7 SSE 998,1 13 0,0
11.12.2019 13:00:00 5,6 3,9 4 2 13 7 S 997,8 12 0,0
11.12.2019 12:00:00 5,2 3,5 4 2 14 8 SSE 997,4 14 0,0
11.12.2019 11:00:00 5,6 3,6 8 4 21 11 S 996,9 24 0,0
11.12.2019 10:00:00 5,5 3,8 10 6 23 12 S 995,8 28 0,0
11.12.2019 09:00:00 3,4 3,0 5 3 19 10 SSE 994,5 43 0,0
11.12.2019 08:00:00 3,2 2,3 13 7 29 16 S 993,5 - 0,0
11.12.2019 07:00:00 2,9 1,6 17 9 36 19 S 993,1 - 0,5
11.12.2019 06:00:00 3,0 1,7 19 11 35 19 SSE 993,0 - 0,6
11.12.2019 05:00:00 3,2 1,9 22 12 42 23 SSE 993,2 - 1,1
11.12.2019 04:00:00 3,0 1,7 17 9 37 20 SSE 994,3 - 0,2
11.12.2019 03:00:00 2,0 1,0 16 9 34 19 SSE 995,7 - 1,2
11.12.2019 02:00:00 2,2 0,9 19 10 40 21 SSE 997,3 - 0,6
11.12.2019 01:00:00 2,4 0,9 19 10 36 19 S 998,7 - 0,0
11.12.2019 00:00:00 2,2 0,4 21 11 41 22 SSE 1000,1 - 0,0
10.12.2019 23:00:00 2,3 0,7 21 11 40 22 SSE 1001,7 - 0,0
10.12.2019 22:00:00 2,0 0,7 17 9 35 19 SSE 1003,7 - 0,0
10.12.2019 21:00:00 1,6 0,0 15 8 30 16 SSE 1005,3 - 0,0
10.12.2019 20:00:00 0,6 -0,9 9 5 20 11 SSE 1006,9 - 0,0
10.12.2019 19:00:00 -0,1 -2,0 11 6 23 12 SSE 1008,4 - 0,0
10.12.2019 18:00:00 -1,1 -3,1 6 3 17 9 SSE 1009,5 - 0,0
10.12.2019 17:00:00 -1,6 -4,3 6 4 14 7 SSE 1011,2 - 0,0
10.12.2019 16:00:00 -2,5 -4,2 5 3 14 8 SE 1012,5 - 0,0
10.12.2019 15:00:00 -2,8 -4,4 5 3 12 6 SSE 1013,5 50 0,0
10.12.2019 14:00:00 -3,2 -4,5 3 2 11 6 S 1014,3 50 0,0
10.12.2019 13:00:00 -4,0 -5,1 0 0 2 1 N 1014,5 42 0,0
10.12.2019 12:00:00 -4,9 -5,7 0 0 3 2 N 1015,1 50 0,0
10.12.2019 11:00:00 -5,9 -6,7 0 0 4 2 N 1015,1 50 0,0
10.12.2019 10:00:00 -6,9 -7,6 0 0 2 1 N 1014,9 50 0,0
10.12.2019 09:00:00 -8,4 -9,3 0 0 4 2 N 1014,8 50 0,0
10.12.2019 08:00:00 -8,1 -8,9 0 0 5 3 N 1014,1 50 0,0
10.12.2019 07:00:00 -8,0 -8,9 3 2 4 2 N 1012,9 50 0,0
10.12.2019 06:00:00 -6,3 -7,1 0 0 10 5 N 1012,0 50 0,0
10.12.2019 05:00:00 -7,3 -8,1 3 2 5 3 N 1011,3 50 0,0
10.12.2019 04:00:00 -5,7 -6,5 3 2 8 5 NNE 1010,5 50 0,0
10.12.2019 03:00:00 -5,4 -6,2 3 1 6 4 WNW 1009,3 50 0,0
10.12.2019 02:00:00 -3,6 -5,8 2 1 14 7 N 1008,1 50 0,0
10.12.2019 01:00:00 -3,4 -5,1 2 1 15 8 WSW 1006,6 50 0,0
10.12.2019 00:00:00 -2,3 -5,1 5 3 14 8 NNW 1004,6 50 0,0
09.12.2019 23:00:00 -1,6 -4,9 10 6 22 12 NNW 1003,2 50 0,0
09.12.2019 22:00:00 -1,2 -4,2 9 5 23 12 NW 1001,3 50 0,0
09.12.2019 21:00:00 -0,5 -3,7 13 7 24 13 NNW 998,7 50 0,0
09.12.2019 20:00:00 -0,1 -3,0 11 6 24 13 NNW 996,3 50 0,0
09.12.2019 19:00:00 0,1 -2,4 8 5 19 11 NNW 994,2 50 0,0
09.12.2019 18:00:00 0,4 -2,3 9 5 26 14 NNW 992,0 50 0,0
09.12.2019 17:00:00 0,6 -2,1 10 5 25 13 NNW 990,2 50 0,0
09.12.2019 16:00:00 0,8 -1,9 15 8 27 15 N 988,2 50 0,0
09.12.2019 15:00:00 0,9 -1,2 11 6 35 19 N 985,9 50 0,0
09.12.2019 14:00:00 0,7 0,1 12 6 24 13 N 984,1 3,1 2,5
09.12.2019 13:00:00 0,6 0,2 6 3 24 13 NNW 982,4 1,7 -
09.12.2019 12:00:00 3,4 2,7 0 0 23 12 N 980,7 1,9 3,5
09.12.2019 11:00:00 5,2 4,5 3 2 13 7 SSE 979,4 13 1,2
09.12.2019 10:00:00 5,5 3,8 6 3 22 12 SSW 978,7 3,6 0,5
09.12.2019 09:00:00 5,8 3,1 5 3 19 10 SSW 977,9 17 -
09.12.2019 08:00:00 5,9 3,1 8 4 21 11 SW 976,9 - 0,0
09.12.2019 07:00:00 6,0 2,8 10 5 22 12 SSW 976,3 - 0,0
09.12.2019 06:00:00 5,8 2,8 8 4 19 10 SSW 975,7 - 0,0
09.12.2019 05:00:00 5,6 2,6 8 4 24 13 SSW 975,2 - 0,0
09.12.2019 04:00:00 5,8 2,6 9 5 23 13 SSW 974,8 - 0,0
09.12.2019 03:00:00 5,4 2,6 5 3 19 11 SSW 974,9 - 0,0
09.12.2019 02:00:00 5,5 2,5 5 3 22 12 S 974,6 - 0,0
09.12.2019 01:00:00 5,3 2,3 6 3 25 13 S 974,2 - 0,0
09.12.2019 00:00:00 5,2 2,2 7 4 16 9 S 974,1 - 0,0
08.12.2019 23:00:00 5,2 2,2 6 3 23 12 SSW 973,9 - 0,0
08.12.2019 22:00:00 5,4 2,6 5 3 24 13 SSW 973,7 - 0,0
08.12.2019 21:00:00 5,1 2,6 5 3 21 11 SW 973,8 - 0,0
08.12.2019 20:00:00 4,7 2,2 6 3 22 12 SSW 973,7 - 0,0
08.12.2019 19:00:00 5,0 2,7 7 4 23 12 SSW 973,3 - 0,0
08.12.2019 18:00:00 4,7 2,7 5 3 21 11 SSW 972,8 - 0,0
08.12.2019 17:00:00 4,6 2,8 8 4 28 15 WSW 972,0 - 0,0
08.12.2019 16:00:00 5,2 3,7 9 5 25 13 WSW 971,3 47 0,1
08.12.2019 15:00:00 5,4 5,3 4 2 12 6 S 970,3 3,1 1,6
08.12.2019 14:00:00 3,0 2,9 3 2 8 5 S 970,5 2,1 0,5
08.12.2019 13:00:00 2,8 2,7 5 3 16 8 S 972,0 10 0,2
08.12.2019 12:00:00 2,0 1,7 5 3 20 11 SSE 973,9 2,8 0,8
08.12.2019 11:00:00 1,2 0,8 13 7 30 16 SE 976,0 3,6 2,3
08.12.2019 10:00:00 0,6 0,3 14 8 29 16 SE 978,4 2,4 2,0
08.12.2019 09:00:00 -0,7 -1,0 6 4 17 9 ESE 981,8 0,8 2,2
08.12.2019 08:00:00 -1,5 -1,8 3 2 15 8 ESE 985,0 - 1,5
08.12.2019 07:00:00 -1,7 -2,1 4 2 11 6 SE 987,5 - 0,7
08.12.2019 06:00:00 -3,2 -3,6 0 0 3 1 N 989,8 50 0,0
08.12.2019 05:00:00 -4,8 -5,3 0 0 2 1 N 991,1 50 0,0
08.12.2019 04:00:00 -6,3 -7,0 0 0 1 1 N 992,5 - 0,0
08.12.2019 03:00:00 -6,0 -6,7 0 0 3 1 N 993,6 - 0,0
08.12.2019 02:00:00 -6,5 -7,2 0 0 3 1 N 994,5 - 0,0
08.12.2019 01:00:00 -6,6 -7,4 0 0 4 2 N 995,2 - 0,0
08.12.2019 00:00:00 -6,2 -6,9 0 0 3 2 N 995,6 - 0,0
07.12.2019 23:00:00 -5,4 -5,9 0 0 4 2 N 995,5 - 0,0
07.12.2019 22:00:00 -5,4 -5,9 3 1 3 2 NNE 995,9 - 0,0
07.12.2019 21:00:00 -4,3 -4,7 0 0 5 3 N 995,8 - 0,0
07.12.2019 20:00:00 -4,3 -4,6 0 0 2 1 N 995,1 - 0,0
07.12.2019 19:00:00 -3,4 -3,5 0 0 3 2 N 994,9 - 0,0
07.12.2019 18:00:00 -3,0 -3,1 0 0 1 1 N 994,2 - 0,0
07.12.2019 17:00:00 -1,8 -1,9 0 0 3 1 N 993,1 - 0,0
07.12.2019 16:00:00 -0,8 -1,2 0 0 9 5 N 992,3 - 0,0
07.12.2019 15:00:00 0,7 0,0 0 0 9 5 N 991,4 50 0,0
07.12.2019 14:00:00 2,2 1,0 4 2 15 8 W 990,3 50 0,0
07.12.2019 13:00:00 2,3 1,3 5 3 16 8 NW 989,5 50 0,0
07.12.2019 12:00:00 2,4 1,4 2 1 16 9 NNW 988,7 50 0,0
07.12.2019 11:00:00 2,3 1,7 0 0 7 4 N 988,2 50 0,0
07.12.2019 10:00:00 2,2 1,6 4 2 11 6 NNW 987,7 50 0,2
07.12.2019 09:00:00 2,4 2,0 5 3 10 6 NNW 986,7 9 0,3
07.12.2019 08:00:00 2,7 2,6 3 2 16 9 NW 986,0 50 0,6
07.12.2019 07:00:00 3,0 2,9 3 1 5 3 WNW 985,5 4,7 0,3
07.12.2019 06:00:00 2,4 2,3 0 0 4 2 N 985,0 1,4 0,3
07.12.2019 05:00:00 3,3 3,2 2 1 9 5 NNW 984,9 18 0,8
07.12.2019 04:00:00 3,5 3,4 2 1 6 3 NE 984,6 23 0,7
07.12.2019 03:00:00 3,7 3,6 3 2 6 3 N 984,6 4,9 4,1
07.12.2019 02:00:00 3,5 3,4 0 0 6 3 N 985,3 0,8 -
07.12.2019 01:00:00 2,8 2,7 3 2 4 2 N 985,8 1,3 2,6
07.12.2019 00:00:00 2,0 1,9 0 0 3 1 N 986,3 3,8 0,8
06.12.2019 23:00:00 1,7 1,6 0 0 2 1 N 987,0 1,8 0,8
06.12.2019 22:00:00 1,2 1,1 0 0 1 1 N 987,9 3,7 0,4
06.12.2019 21:00:00 1,0 0,9 0 0 1 1 N 988,3 4,6 0,5
06.12.2019 20:00:00 0,7 0,6 0 0 4 2 N 988,8 9 0,1
06.12.2019 19:00:00 0,2 0,1 3 1 4 2 N 989,0 15 0,0
06.12.2019 18:00:00 0,4 0,3 0 0 5 3 N 989,1 10 0,0
06.12.2019 17:00:00 0,6 0,5 0 0 1 1 N 989,0 2,8 0,0

tt = temperature
td = dewpoint
ff = wind speed
fx = gusts
dd = wind direction
ppp = reduced air pressure
vv = visibility
rr = precipitation

Next stations